Regional Weather Roundup
Issued by NWS

Home | Current Version | Previous Version | Text Only | Print | Product List | Glossary On
Versions: 1 2 3 4 5 6 7 8 9 10 11 12 13 14 15 16 17 18 19 20 21 22 23 24 25 26 27 28 29 30 31 32 33 34 35 36 37 38 39 40 41 42 43 44 45 46 47 48 49 50
000
ASUS43 KLMK 221102
RWRKY
KENTUCKY REGIONAL WEATHER ROUNDUP
NATIONAL WEATHER SERVICE LOUISVILLE KY
700 AM EDT WED OCT 22 2014

NOTE "FAIR" INDICATES FEW OR NO CLOUDS BELOW 12,000 FEET
WITH NO SIGNIFICANT WEATHER AND/OR OBSTRUCTIONS TO VISIBILITY.

KYZ001>023-026-027-061>063-070>075-221200-
WESTERN AND SOUTH CENTRAL KENTUCKY

CITY           SKY/WX    TMP DP  RH WIND       PRES   REMARKS
PADUCAH        CLEAR     42  40  92 NE3       30.23R
HENDERSON      CLEAR    N/A N/A N/A NE5       30.25R
OWENSBORO      CLEAR     45  42  89 NE7       30.25R
HOPKINSVILLE   CLEAR     42  42 100 N6        30.22R
BOWLING GREEN  CLEAR     43  39  86 NE5       30.23R
GLASGOW        NOT AVBL
$$

KYZ024-025-028>034-038-045-046-053-221200-
NORTH CENTRAL KENTUCKY

CITY           SKY/WX    TMP DP  RH WIND       PRES   REMARKS
LOUISVILLE/SDF MOCLDY    44  39  82 N8        30.25R
LOUISVILLE/LOU MOCLDY    44  39  82 N3        30.25R
FORT KNOX      CLEAR     41  38  90 N5        30.23R
$$

KYZ035>037-039>044-047>052-055>060-089>105-221200-
NORTHEAST KENTUCKY

CITY           SKY/WX    TMP DP  RH WIND       PRES   REMARKS
LEXINGTON      MOCLDY    44  38  79 N5        30.22R
COVINGTON      CLOUDY    45  37  73 N10G21    30.24R
FRANKFORT      MOCLDY    43  37  79 NW5       30.22R
$$

KYZ054-064>069-076>088-106>120-221200-
SOUTHEAST KENTUCKY

CITY           SKY/WX    TMP DP  RH WIND       PRES   REMARKS
JACKSON        CLOUDY    42  38  85 VRB3      30.18R
LONDON         MOCLDY    42  38  85 N3        30.19R
SOMERSET       CLEAR     41  37  87 CALM      30.22R
MIDDLESBORO    NOT AVBL
MONTICELLO     SUNNY     39  37  92 CALM      30.22R
$$




USA.gov is the U.S. government's official web portal to all federal, state and local government web resources and services.